Volver al catálogo

KUIPER-00430

ActivoComunicacionesLEO
NORAD 68935·PAYLOAD·🇺🇸 United States

Lanzado Apr 30, 2026 desde Guiana Space Centre

Loading…

Próximos Pases (próximas 24 horas)

TLE

ActualizadoSource: CelesTrak SupGP

Época: Sep 15, 2026, 04:40 UTC

1 68935C 26098S   26258.19454861 -.00011952  00000+0 -15645-2 0  2587
2 68935  51.9043  22.5467 0000658 105.0933 125.9972 14.79942725    17

Sigue KUIPER-00430 en tiempo real con AllMySat

Download on the App Store